Year,Month,Day,Hour,Minute,Value (Times are PST for temperature in C)
2014,04,22,00,00,7.20
2014,04,22,00,01,7.20
2014,04,22,00,02,7.20
2014,04,22,00,03,7.20
2014,04,22,00,04,7.20
2014,04,22,00,05,7.20
2014,04,22,00,06,7.10
2014,04,22,00,07,7.10
2014,04,22,00,08,7.10
2014,04,22,00,09,7.10
2014,04,22,00,10,7.10
2014,04,22,00,11,7.10
2014,04,22,00,12,7.10
2014,04,22,00,13,7.10
2014,04,22,00,14,7.10
2014,04,22,00,15,7.00
2014,04,22,00,16,7.00
2014,04,22,00,17,7.00
2014,04,22,00,18,6.90
2014,04,22,00,19,6.90
2014,04,22,00,20,6.90
2014,04,22,00,21,6.90
2014,04,22,00,22,6.80
2014,04,22,00,23,6.80
2014,04,22,00,24,6.80
2014,04,22,00,25,6.80
2014,04,22,00,26,6.80
2014,04,22,00,27,6.70
2014,04,22,00,28,6.70
2014,04,22,00,29,6.70
2014,04,22,00,30,6.70
2014,04,22,00,31,6.60
2014,04,22,00,32,6.60
2014,04,22,00,33,6.60
2014,04,22,00,34,6.60
2014,04,22,00,35,6.60
2014,04,22,00,36,6.50
2014,04,22,00,37,6.50
2014,04,22,00,38,6.50
2014,04,22,00,39,6.40
2014,04,22,00,40,6.40
2014,04,22,00,41,6.40
2014,04,22,00,42,6.40
2014,04,22,00,43,6.40
2014,04,22,00,44,6.30
2014,04,22,00,45,6.30
2014,04,22,00,46,6.30
2014,04,22,00,47,6.30
2014,04,22,00,48,6.30
2014,04,22,00,49,6.30
2014,04,22,00,50,6.30
2014,04,22,00,51,6.20
2014,04,22,00,52,6.20
2014,04,22,00,53,6.20
2014,04,22,00,54,6.20
2014,04,22,00,55,6.20
2014,04,22,00,56,6.20
2014,04,22,00,57,6.20
2014,04,22,00,58,6.20
2014,04,22,00,59,6.20
2014,04,22,01,00,6.20
2014,04,22,01,01,6.20
2014,04,22,01,02,6.20
2014,04,22,01,03,6.20
2014,04,22,01,04,6.20
2014,04,22,01,05,6.20
2014,04,22,01,06,6.10
2014,04,22,01,07,6.20
2014,04,22,01,08,6.20
2014,04,22,01,09,6.20
2014,04,22,01,10,6.10
2014,04,22,01,11,6.10
2014,04,22,01,12,6.10
2014,04,22,01,13,6.10
2014,04,22,01,14,6.10
2014,04,22,01,15,6.20
2014,04,22,01,16,6.10
2014,04,22,01,17,6.10
2014,04,22,01,18,6.10
2014,04,22,01,19,6.10
2014,04,22,01,20,6.10
2014,04,22,01,21,6.10
2014,04,22,01,22,6.10
2014,04,22,01,23,6.10
2014,04,22,01,24,6.10
2014,04,22,01,25,6.10
2014,04,22,01,26,6.00
2014,04,22,01,27,6.00
2014,04,22,01,28,6.00
2014,04,22,01,29,6.00
2014,04,22,01,30,6.00
2014,04,22,01,31,6.00
2014,04,22,01,32,6.00
2014,04,22,01,33,6.00
2014,04,22,01,34,5.90
2014,04,22,01,35,5.90
2014,04,22,01,36,5.90
2014,04,22,01,37,5.90
2014,04,22,01,38,5.90
2014,04,22,01,39,5.90
2014,04,22,01,40,5.90
2014,04,22,01,41,5.90
2014,04,22,01,42,5.90
2014,04,22,01,43,5.90
2014,04,22,01,44,5.90
2014,04,22,01,45,5.80
2014,04,22,01,46,5.80
2014,04,22,01,47,5.80
2014,04,22,01,48,5.80
2014,04,22,01,49,5.80
2014,04,22,01,50,5.80
2014,04,22,01,51,5.80
2014,04,22,01,52,5.70
2014,04,22,01,53,5.70
2014,04,22,01,54,5.70
2014,04,22,01,55,5.70
2014,04,22,01,56,5.70
2014,04,22,01,57,5.70
2014,04,22,01,58,5.60
2014,04,22,01,59,5.60
2014,04,22,02,00,5.60
2014,04,22,02,01,5.60
2014,04,22,02,02,5.60
2014,04,22,02,03,5.60
2014,04,22,02,04,5.50
2014,04,22,02,05,5.50
2014,04,22,02,06,5.50
2014,04,22,02,07,5.40
2014,04,22,02,08,5.40
2014,04,22,02,09,5.40
2014,04,22,02,10,5.40
2014,04,22,02,11,5.40
2014,04,22,02,12,5.40
2014,04,22,02,13,5.30
2014,04,22,02,14,5.30
2014,04,22,02,15,5.30
2014,04,22,02,16,5.30
2014,04,22,02,17,5.30
2014,04,22,02,18,5.20
2014,04,22,02,19,5.20
2014,04,22,02,20,5.20
2014,04,22,02,21,5.20
2014,04,22,02,22,5.20
2014,04,22,02,23,5.20
2014,04,22,02,24,5.20
2014,04,22,02,25,5.20
2014,04,22,02,26,5.20
2014,04,22,02,27,5.20
2014,04,22,02,28,5.20
2014,04,22,02,29,5.10
2014,04,22,02,30,5.10
2014,04,22,02,31,5.10
2014,04,22,02,32,5.10
2014,04,22,02,33,5.10
2014,04,22,02,34,5.00
2014,04,22,02,35,5.00
2014,04,22,02,36,5.00
2014,04,22,02,37,4.90
2014,04,22,02,38,4.90
2014,04,22,02,39,4.90
2014,04,22,02,40,4.90
2014,04,22,02,41,4.90
2014,04,22,02,42,4.90
2014,04,22,02,43,4.80
2014,04,22,02,44,4.80
2014,04,22,02,45,4.80
2014,04,22,02,46,4.80
2014,04,22,02,47,4.80
2014,04,22,02,48,4.80
2014,04,22,02,49,4.80
2014,04,22,02,50,4.80
2014,04,22,02,51,4.70
2014,04,22,02,52,4.70
2014,04,22,02,53,4.70
2014,04,22,02,54,4.70
2014,04,22,02,55,4.70
2014,04,22,02,56,4.60
2014,04,22,02,57,4.60
2014,04,22,02,58,4.60
2014,04,22,02,59,4.60
2014,04,22,03,00,4.60
2014,04,22,03,01,4.60
2014,04,22,03,02,4.60
2014,04,22,03,03,4.50
2014,04,22,03,04,4.50
2014,04,22,03,05,4.50
2014,04,22,03,06,4.50
2014,04,22,03,07,4.50
2014,04,22,03,08,4.50
2014,04,22,03,09,4.40
2014,04,22,03,10,4.40
2014,04,22,03,11,4.40
2014,04,22,03,12,4.40
2014,04,22,03,13,4.40
2014,04,22,03,14,4.40
2014,04,22,03,15,4.30
2014,04,22,03,16,4.30
2014,04,22,03,17,4.30
2014,04,22,03,18,4.30
2014,04,22,03,19,4.30
2014,04,22,03,20,4.20
2014,04,22,03,21,4.20
2014,04,22,03,22,4.20
2014,04,22,03,23,4.20
2014,04,22,03,24,4.20
2014,04,22,03,25,4.20
2014,04,22,03,26,4.10
2014,04,22,03,27,4.10
2014,04,22,03,28,4.10
2014,04,22,03,29,4.10
2014,04,22,03,30,4.10
2014,04,22,03,31,4.10
2014,04,22,03,32,4.10
2014,04,22,03,33,4.00
2014,04,22,03,34,4.00
2014,04,22,03,35,4.00
2014,04,22,03,36,4.00
2014,04,22,03,37,4.00
2014,04,22,03,38,4.00
2014,04,22,03,39,4.00
2014,04,22,03,40,3.90
2014,04,22,03,41,3.90
2014,04,22,03,42,3.90
2014,04,22,03,43,3.90
2014,04,22,03,44,3.80
2014,04,22,03,45,3.80
2014,04,22,03,46,3.80
2014,04,22,03,47,3.80
2014,04,22,03,48,3.80
2014,04,22,03,49,3.80
2014,04,22,03,50,3.70
2014,04,22,03,51,3.70
2014,04,22,03,52,3.70
2014,04,22,03,53,3.70
2014,04,22,03,54,3.70
2014,04,22,03,55,3.70
2014,04,22,03,56,3.70
2014,04,22,03,57,3.60
2014,04,22,03,58,3.60
2014,04,22,03,59,3.60
2014,04,22,04,00,3.60
2014,04,22,04,01,3.60
2014,04,22,04,02,3.50
2014,04,22,04,03,3.50
2014,04,22,04,04,3.50
2014,04,22,04,05,3.50
2014,04,22,04,06,3.50
2014,04,22,04,07,3.40
2014,04,22,04,08,3.40
2014,04,22,04,09,3.40
2014,04,22,04,10,3.40
2014,04,22,04,11,3.40
2014,04,22,04,12,3.40
2014,04,22,04,13,3.30
2014,04,22,04,14,3.30
2014,04,22,04,15,3.30
2014,04,22,04,16,3.30
2014,04,22,04,17,3.30
2014,04,22,04,18,3.30
2014,04,22,04,19,3.30
2014,04,22,04,20,3.30
2014,04,22,04,21,3.40
2014,04,22,04,22,3.40
2014,04,22,04,23,3.40
2014,04,22,04,24,3.50
2014,04,22,04,25,3.50
2014,04,22,04,26,3.50
2014,04,22,04,27,3.60
2014,04,22,04,28,3.60
2014,04,22,04,29,3.60
2014,04,22,04,30,3.50
2014,04,22,04,31,3.50
2014,04,22,04,32,3.50
2014,04,22,04,33,3.40
2014,04,22,04,34,3.40
2014,04,22,04,35,3.40
2014,04,22,04,36,3.40
2014,04,22,04,37,3.40
2014,04,22,04,38,3.40
2014,04,22,04,39,3.30
2014,04,22,04,40,3.30
2014,04,22,04,41,3.30
2014,04,22,04,42,3.30
2014,04,22,04,43,3.30
2014,04,22,04,44,3.30
2014,04,22,04,45,3.20
2014,04,22,04,46,3.20
2014,04,22,04,47,3.20
2014,04,22,04,48,3.20
2014,04,22,04,49,3.10
2014,04,22,04,50,3.10
2014,04,22,04,51,3.00
2014,04,22,04,52,3.00
2014,04,22,04,53,3.00
2014,04,22,04,54,2.90
2014,04,22,04,55,2.90
2014,04,22,04,56,2.90
2014,04,22,04,57,2.90
2014,04,22,04,58,2.90
2014,04,22,04,59,2.80
2014,04,22,05,00,2.80
2014,04,22,05,01,2.80
2014,04,22,05,02,2.80
2014,04,22,05,03,2.80
2014,04,22,05,04,2.80
2014,04,22,05,05,2.70
2014,04,22,05,06,2.70
2014,04,22,05,07,2.70
2014,04,22,05,08,2.70
2014,04,22,05,09,2.70
2014,04,22,05,10,2.70
2014,04,22,05,11,2.60
2014,04,22,05,12,2.60
2014,04,22,05,13,2.60
2014,04,22,05,14,2.60
2014,04,22,05,15,2.50
2014,04,22,05,16,2.50
2014,04,22,05,17,2.40
2014,04,22,05,18,2.40
2014,04,22,05,19,2.40
2014,04,22,05,20,2.40
2014,04,22,05,21,2.30
2014,04,22,05,22,2.30
2014,04,22,05,23,2.30
2014,04,22,05,24,2.30
2014,04,22,05,25,2.30
2014,04,22,05,26,2.30
2014,04,22,05,27,2.30
2014,04,22,05,28,2.30
2014,04,22,05,29,2.30
2014,04,22,05,30,2.20
2014,04,22,05,31,2.20
2014,04,22,05,32,2.20
2014,04,22,05,33,2.20
2014,04,22,05,34,2.20
2014,04,22,05,35,2.20
2014,04,22,05,36,2.20
2014,04,22,05,37,2.20
2014,04,22,05,38,2.10
2014,04,22,05,39,2.10
2014,04,22,05,40,2.10
2014,04,22,05,41,2.10
2014,04,22,05,42,2.10
2014,04,22,05,43,2.10
2014,04,22,05,44,2.10
2014,04,22,05,45,2.10
2014,04,22,05,46,2.00
2014,04,22,05,47,2.00
2014,04,22,05,48,2.00
2014,04,22,05,49,1.90
2014,04,22,05,50,1.90
2014,04,22,05,51,1.90
2014,04,22,05,52,1.90
2014,04,22,05,53,1.80
2014,04,22,05,54,1.80
2014,04,22,05,55,1.80
2014,04,22,05,56,1.80
2014,04,22,05,57,1.80
2014,04,22,05,58,1.80
2014,04,22,05,59,1.70
2014,04,22,06,00,1.70
2014,04,22,06,01,1.70
2014,04,22,06,02,1.60
2014,04,22,06,03,1.60
2014,04,22,06,04,1.60
2014,04,22,06,05,1.60
2014,04,22,06,06,1.50
2014,04,22,06,07,1.50
2014,04,22,06,08,1.50
2014,04,22,06,09,1.40
2014,04,22,06,10,1.40
2014,04,22,06,11,1.40
2014,04,22,06,12,1.30
2014,04,22,06,13,1.30
2014,04,22,06,14,1.30
2014,04,22,06,15,1.30
2014,04,22,06,16,1.30
2014,04,22,06,17,1.30
2014,04,22,06,18,1.30
2014,04,22,06,19,1.30
2014,04,22,06,20,1.30
2014,04,22,06,21,1.30
2014,04,22,06,22,1.20
2014,04,22,06,23,1.20
2014,04,22,06,24,1.20
2014,04,22,06,25,1.20
2014,04,22,06,26,1.20
2014,04,22,06,27,1.20
2014,04,22,06,28,1.20
2014,04,22,06,29,1.20
2014,04,22,06,30,1.20
2014,04,22,06,31,1.20
2014,04,22,06,32,1.20
2014,04,22,06,33,1.10
2014,04,22,06,34,1.10
2014,04,22,06,35,1.10
2014,04,22,06,36,1.00
2014,04,22,06,37,1.00
2014,04,22,06,38,0.90
2014,04,22,06,39,0.90
2014,04,22,06,40,0.80
2014,04,22,06,41,0.80
2014,04,22,06,42,0.80
2014,04,22,06,43,0.80
2014,04,22,06,44,0.80
2014,04,22,06,45,0.70
2014,04,22,06,46,0.70
2014,04,22,06,47,0.70
2014,04,22,06,48,0.70
2014,04,22,06,49,0.70
2014,04,22,06,50,0.70
2014,04,22,06,51,0.60
2014,04,22,06,52,0.60
2014,04,22,06,53,0.60
2014,04,22,06,54,0.60
2014,04,22,06,55,0.60
2014,04,22,06,56,0.60
2014,04,22,06,57,0.60
2014,04,22,06,58,0.70
2014,04,22,06,59,0.70
2014,04,22,07,00,0.70
2014,04,22,07,01,0.70
2014,04,22,07,02,0.70
2014,04,22,07,03,0.70
2014,04,22,07,04,0.70
2014,04,22,07,05,0.70
2014,04,22,07,06,0.70
2014,04,22,07,07,0.80
2014,04,22,07,08,0.80
2014,04,22,07,09,0.80
2014,04,22,07,10,0.80
2014,04,22,07,11,0.90
2014,04,22,07,12,0.90
2014,04,22,07,13,1.00
2014,04,22,07,14,1.00
2014,04,22,07,15,1.10
2014,04,22,07,16,1.10
2014,04,22,07,17,1.20
2014,04,22,07,18,1.30
2014,04,22,07,19,1.30
2014,04,22,07,20,1.40
2014,04,22,07,21,1.40
2014,04,22,07,22,1.50
2014,04,22,07,23,1.60
2014,04,22,07,24,1.60
2014,04,22,07,25,1.70
2014,04,22,07,26,1.70
2014,04,22,07,27,1.70
2014,04,22,07,28,1.80
2014,04,22,07,29,1.80
2014,04,22,07,30,1.90
2014,04,22,07,31,2.00
2014,04,22,07,32,2.00
2014,04,22,07,33,2.10
2014,04,22,07,34,2.20
2014,04,22,07,35,2.20
2014,04,22,07,36,2.30
2014,04,22,07,37,2.40
2014,04,22,07,38,2.40
2014,04,22,07,39,2.50
2014,04,22,07,40,2.60
2014,04,22,07,41,2.60
2014,04,22,07,42,2.70
2014,04,22,07,43,2.80
2014,04,22,07,44,2.90
2014,04,22,07,45,2.90
2014,04,22,07,46,3.00
2014,04,22,07,47,3.10
2014,04,22,07,48,3.20
2014,04,22,07,49,3.20
2014,04,22,07,50,3.30
2014,04,22,07,51,3.40
2014,04,22,07,52,3.50
2014,04,22,07,53,3.60
2014,04,22,07,54,3.70
2014,04,22,07,55,3.80
2014,04,22,07,56,3.90
2014,04,22,07,57,4.00
2014,04,22,07,58,4.00
2014,04,22,07,59,4.10
2014,04,22,08,00,4.20
2014,04,22,08,01,4.20
2014,04,22,08,02,4.30
2014,04,22,08,03,4.40
2014,04,22,08,04,4.50
2014,04,22,08,05,4.50
2014,04,22,08,06,4.60
2014,04,22,08,07,4.60
2014,04,22,08,08,4.70
2014,04,22,08,09,4.70
2014,04,22,08,10,4.80
2014,04,22,08,11,4.90
2014,04,22,08,12,5.00
2014,04,22,08,13,5.10
2014,04,22,08,14,5.20
2014,04,22,08,15,5.30
2014,04,22,08,16,5.40
2014,04,22,08,17,5.50
2014,04,22,08,18,5.60
2014,04,22,08,19,5.70
2014,04,22,08,20,5.80
2014,04,22,08,21,5.80
2014,04,22,08,22,5.90
2014,04,22,08,23,6.00
2014,04,22,08,24,6.00
2014,04,22,08,25,6.10
2014,04,22,08,26,6.20
2014,04,22,08,27,6.30
2014,04,22,08,28,6.40
2014,04,22,08,29,6.40
2014,04,22,08,30,6.50
2014,04,22,08,31,6.60
2014,04,22,08,32,6.60
2014,04,22,08,33,6.60
2014,04,22,08,34,6.70
2014,04,22,08,35,6.70
2014,04,22,08,36,6.70
2014,04,22,08,37,6.80
2014,04,22,08,38,6.80
2014,04,22,08,39,6.80
2014,04,22,08,40,6.80
2014,04,22,08,41,6.80
2014,04,22,08,42,6.90
2014,04,22,08,43,7.00
2014,04,22,08,44,7.10
2014,04,22,08,45,7.20
2014,04,22,08,46,7.30
2014,04,22,08,47,7.30
2014,04,22,08,48,7.30
2014,04,22,08,49,7.30
2014,04,22,08,50,7.30
2014,04,22,08,51,7.30
2014,04,22,08,52,7.40
2014,04,22,08,53,7.40
2014,04,22,08,54,7.40
2014,04,22,08,55,7.40
2014,04,22,08,56,7.40
2014,04,22,08,57,7.40
2014,04,22,08,58,7.40
2014,04,22,08,59,7.30
2014,04,22,09,00,7.30
2014,04,22,09,01,7.30
2014,04,22,09,02,7.30
2014,04,22,09,03,7.30
2014,04,22,09,04,7.40
2014,04,22,09,05,7.40
2014,04,22,09,06,7.40
2014,04,22,09,07,7.40
2014,04,22,09,08,7.30
2014,04,22,09,09,7.30
2014,04,22,09,10,7.40
2014,04,22,09,11,7.40
2014,04,22,09,12,7.40
2014,04,22,09,13,7.50
2014,04,22,09,14,7.40
2014,04,22,09,15,7.40
2014,04,22,09,16,7.30
2014,04,22,09,17,7.30
2014,04,22,09,18,7.30
2014,04,22,09,19,7.30
2014,04,22,09,20,7.20
2014,04,22,09,21,7.20
2014,04,22,09,22,7.20
2014,04,22,09,23,7.20
2014,04,22,09,24,7.20
2014,04,22,09,25,7.20
2014,04,22,09,26,7.20
2014,04,22,09,27,7.30
2014,04,22,09,28,7.30
2014,04,22,09,29,7.40
2014,04,22,09,30,7.50
2014,04,22,09,31,7.50
2014,04,22,09,32,7.60
2014,04,22,09,33,7.70
2014,04,22,09,34,7.80
2014,04,22,09,35,7.80
2014,04,22,09,36,7.80
2014,04,22,09,37,7.80
2014,04,22,09,38,7.80
2014,04,22,09,39,7.80
2014,04,22,09,40,7.80
2014,04,22,09,41,7.80
2014,04,22,09,42,7.90
2014,04,22,09,43,7.90
2014,04,22,09,44,7.90
2014,04,22,09,45,7.90
2014,04,22,09,46,7.90
2014,04,22,09,47,8.00
2014,04,22,09,48,8.00
2014,04,22,09,49,8.00
2014,04,22,09,50,7.90
2014,04,22,09,51,7.80
2014,04,22,09,52,7.80
2014,04,22,09,53,7.80
2014,04,22,09,54,7.80
2014,04,22,09,55,7.90
2014,04,22,09,56,8.00
2014,04,22,09,57,8.00
2014,04,22,09,58,8.00
2014,04,22,09,59,8.10
2014,04,22,10,00,8.10
2014,04,22,10,01,8.00
2014,04,22,10,02,7.90
2014,04,22,10,03,7.90
2014,04,22,10,04,7.90
2014,04,22,10,05,7.90
2014,04,22,10,06,7.90
2014,04,22,10,07,7.90
2014,04,22,10,08,7.80
2014,04,22,10,09,7.80
2014,04,22,10,10,7.70
2014,04,22,10,11,7.70
2014,04,22,10,12,7.70
2014,04,22,10,13,7.70
2014,04,22,10,14,7.80
2014,04,22,10,15,7.90
2014,04,22,10,16,7.90
2014,04,22,10,17,8.00
2014,04,22,10,18,8.10
2014,04,22,10,19,8.10
2014,04,22,10,20,8.20
2014,04,22,10,21,8.20
2014,04,22,10,22,8.20
2014,04,22,10,23,8.30
2014,04,22,10,24,8.40
2014,04,22,10,25,8.50
2014,04,22,10,26,8.60
2014,04,22,10,27,8.60
2014,04,22,10,28,8.60
2014,04,22,10,29,8.50
2014,04,22,10,30,8.50
2014,04,22,10,31,8.40
2014,04,22,10,32,8.40
2014,04,22,10,33,8.30
2014,04,22,10,34,8.30
2014,04,22,10,35,8.30
2014,04,22,10,36,8.30
2014,04,22,10,37,8.30
2014,04,22,10,38,8.30
2014,04,22,10,39,8.30
2014,04,22,10,40,8.30
2014,04,22,10,41,8.30
2014,04,22,10,42,8.30
2014,04,22,10,43,8.20
2014,04,22,10,44,8.10
2014,04,22,10,45,8.10
2014,04,22,10,46,8.10
2014,04,22,10,47,8.10
2014,04,22,10,48,8.20
2014,04,22,10,49,8.20
2014,04,22,10,50,8.20
2014,04,22,10,51,8.30
2014,04,22,10,52,8.30
2014,04,22,10,53,8.30
2014,04,22,10,54,8.30
2014,04,22,10,55,8.30
2014,04,22,10,56,8.40
2014,04,22,10,57,8.40
2014,04,22,10,58,8.50
2014,04,22,10,59,8.50
2014,04,22,11,00,8.40
2014,04,22,11,01,8.30
2014,04,22,11,02,8.20
2014,04,22,11,03,8.20
2014,04,22,11,04,8.10
2014,04,22,11,05,8.00
2014,04,22,11,06,8.00
2014,04,22,11,07,8.00
2014,04,22,11,08,7.90
2014,04,22,11,09,7.90
2014,04,22,11,10,7.90
2014,04,22,11,11,8.00
2014,04,22,11,12,8.10
2014,04,22,11,13,8.20
2014,04,22,11,14,8.20
2014,04,22,11,15,8.30
2014,04,22,11,16,8.30
2014,04,22,11,17,8.30
2014,04,22,11,18,8.30
2014,04,22,11,19,8.20
2014,04,22,11,20,8.20
2014,04,22,11,21,8.10
2014,04,22,11,22,8.00
2014,04,22,11,23,8.00
2014,04,22,11,24,8.00
2014,04,22,11,25,7.90
2014,04,22,11,26,7.90
2014,04,22,11,27,7.90
2014,04,22,11,28,7.90
2014,04,22,11,29,7.80
2014,04,22,11,30,7.80
2014,04,22,11,31,7.90
2014,04,22,11,32,7.90
2014,04,22,11,33,8.00
2014,04,22,11,34,8.10
2014,04,22,11,35,8.20
2014,04,22,11,36,8.10
2014,04,22,11,37,8.10
2014,04,22,11,38,8.10
2014,04,22,11,39,8.10
2014,04,22,11,40,8.10
2014,04,22,11,41,8.10
2014,04,22,11,42,8.10
2014,04,22,11,43,8.10
2014,04,22,11,44,8.10
2014,04,22,11,45,8.00
2014,04,22,11,46,8.00
2014,04,22,11,47,8.00
2014,04,22,11,48,8.10
2014,04,22,11,49,8.20
2014,04,22,11,50,8.30
2014,04,22,11,51,8.40
2014,04,22,11,52,8.40
2014,04,22,11,53,8.40
2014,04,22,11,54,8.30
2014,04,22,11,55,8.30
2014,04,22,11,56,8.30
2014,04,22,11,57,8.30
2014,04,22,11,58,8.30
2014,04,22,11,59,8.40
2014,04,22,12,00,8.50
2014,04,22,12,01,8.70
2014,04,22,12,02,8.70
2014,04,22,12,03,8.80
2014,04,22,12,04,8.80
2014,04,22,12,05,8.80
2014,04,22,12,06,8.80
2014,04,22,12,07,8.90
2014,04,22,12,08,9.00
2014,04,22,12,09,9.00
2014,04,22,12,10,9.10
2014,04,22,12,11,9.20
2014,04,22,12,12,9.20
2014,04,22,12,13,9.30
2014,04,22,12,14,9.30
2014,04,22,12,15,9.40
2014,04,22,12,16,9.50
2014,04,22,12,17,9.60
2014,04,22,12,18,9.60
2014,04,22,12,19,9.70
2014,04,22,12,20,9.70
2014,04,22,12,21,9.60
2014,04,22,12,22,9.50
2014,04,22,12,23,9.40
2014,04,22,12,24,9.40
2014,04,22,12,25,9.40
2014,04,22,12,26,9.40
2014,04,22,12,27,9.40
2014,04,22,12,28,9.40
2014,04,22,12,29,9.30
2014,04,22,12,30,9.30
2014,04,22,12,31,9.30
2014,04,22,12,32,9.30
2014,04,22,12,33,9.40
2014,04,22,12,34,9.40
2014,04,22,12,35,9.40
2014,04,22,12,36,9.30
2014,04,22,12,37,9.30
2014,04,22,12,38,9.30
2014,04,22,12,39,9.40
2014,04,22,12,40,9.40
2014,04,22,12,41,9.50
2014,04,22,12,42,9.60
2014,04,22,12,43,9.50
2014,04,22,12,44,9.50
2014,04,22,12,45,9.60
2014,04,22,12,46,9.60
2014,04,22,12,47,9.70
2014,04,22,12,48,9.70
2014,04,22,12,49,9.60
2014,04,22,12,50,9.50
2014,04,22,12,51,9.40
2014,04,22,12,52,9.40
2014,04,22,12,53,9.30
2014,04,22,12,54,9.30
2014,04,22,12,55,9.40
2014,04,22,12,56,9.40
2014,04,22,12,57,9.40
2014,04,22,12,58,9.30
2014,04,22,12,59,9.20
2014,04,22,13,00,9.20
2014,04,22,13,01,9.20
2014,04,22,13,02,9.20
2014,04,22,13,03,9.20
2014,04,22,13,04,9.20
2014,04,22,13,05,9.20
2014,04,22,13,06,9.30
2014,04,22,13,07,9.30
2014,04,22,13,08,9.50
2014,04,22,13,09,9.70
2014,04,22,13,10,9.70
2014,04,22,13,11,9.70
2014,04,22,13,12,9.70
2014,04,22,13,13,9.70
2014,04,22,13,14,9.60
2014,04,22,13,15,9.60
2014,04,22,13,16,9.60
2014,04,22,13,17,9.60
2014,04,22,13,18,9.60
2014,04,22,13,19,9.50
2014,04,22,13,20,9.40
2014,04,22,13,21,9.40
2014,04,22,13,22,9.30
2014,04,22,13,23,9.30
2014,04,22,13,24,9.30
2014,04,22,13,25,9.30
2014,04,22,13,26,9.30
2014,04,22,13,27,9.30
2014,04,22,13,28,9.30
2014,04,22,13,29,9.20
2014,04,22,13,30,9.20
2014,04,22,13,31,9.20
2014,04,22,13,32,9.20
2014,04,22,13,33,9.20
2014,04,22,13,34,9.30
2014,04,22,13,35,9.30
2014,04,22,13,36,9.30
2014,04,22,13,37,9.40
2014,04,22,13,38,9.40
2014,04,22,13,39,9.40
2014,04,22,13,40,9.40
2014,04,22,13,41,9.50
2014,04,22,13,42,9.50
2014,04,22,13,43,9.50
2014,04,22,13,44,9.60
2014,04,22,13,45,9.60
2014,04,22,13,46,9.60
2014,04,22,13,47,9.60
2014,04,22,13,48,9.50
2014,04,22,13,49,9.40
2014,04,22,13,50,9.40
2014,04,22,13,51,9.30
2014,04,22,13,52,9.30
2014,04,22,13,53,9.30
2014,04,22,13,54,9.30
2014,04,22,13,55,9.30
2014,04,22,13,56,9.30
2014,04,22,13,57,9.30
2014,04,22,13,58,9.30
2014,04,22,13,59,9.30
2014,04,22,14,00,9.30
2014,04,22,14,01,9.30
2014,04,22,14,02,9.30
2014,04,22,14,03,9.30
2014,04,22,14,04,9.30
2014,04,22,14,05,9.30
2014,04,22,14,06,9.30
2014,04,22,14,07,9.30
2014,04,22,14,08,9.30
2014,04,22,14,09,9.30
2014,04,22,14,10,9.30
2014,04,22,14,11,9.30
2014,04,22,14,12,9.20
2014,04,22,14,13,9.20
2014,04,22,14,14,9.20
2014,04,22,14,15,9.20
2014,04,22,14,16,9.20
2014,04,22,14,17,9.10
2014,04,22,14,18,9.10
2014,04,22,14,19,9.20
2014,04,22,14,20,9.20
2014,04,22,14,21,9.20
2014,04,22,14,22,9.20
2014,04,22,14,23,9.20
2014,04,22,14,24,9.20
2014,04,22,14,25,9.10
2014,04,22,14,26,9.10
2014,04,22,14,27,9.10
2014,04,22,14,28,9.10
2014,04,22,14,29,9.10
2014,04,22,14,30,9.00
2014,04,22,14,31,9.00
2014,04,22,14,32,8.90
2014,04,22,14,33,8.90
2014,04,22,14,34,8.90
2014,04,22,14,35,8.90
2014,04,22,14,36,8.90
2014,04,22,14,37,8.90
2014,04,22,14,38,8.90
2014,04,22,14,39,8.90
2014,04,22,14,40,8.90
2014,04,22,14,41,8.90
2014,04,22,14,42,8.90
2014,04,22,14,43,8.90
2014,04,22,14,44,8.90
2014,04,22,14,45,8.90
2014,04,22,14,46,8.90
2014,04,22,14,47,9.00
2014,04,22,14,48,9.00
2014,04,22,14,49,9.00
2014,04,22,14,50,9.10
2014,04,22,14,51,9.10
2014,04,22,14,52,9.10
2014,04,22,14,53,9.20
2014,04,22,14,54,9.20
2014,04,22,14,55,9.20
2014,04,22,14,56,9.30
2014,04,22,14,57,9.30
2014,04,22,14,58,9.30
2014,04,22,14,59,9.30
2014,04,22,15,00,9.30
2014,04,22,15,01,9.40
2014,04,22,15,02,9.40
2014,04,22,15,03,9.40
2014,04,22,15,04,9.40
2014,04,22,15,05,9.40
2014,04,22,15,06,9.40
2014,04,22,15,07,9.50
2014,04,22,15,08,9.50
2014,04,22,15,09,9.60
2014,04,22,15,10,9.70
2014,04,22,15,11,9.80
2014,04,22,15,12,9.90
2014,04,22,15,13,10.00
2014,04,22,15,14,10.10
2014,04,22,15,15,10.20
2014,04,22,15,16,10.30
2014,04,22,15,17,10.40
2014,04,22,15,18,10.50
2014,04,22,15,19,10.50
2014,04,22,15,20,10.50
2014,04,22,15,21,10.50
2014,04,22,15,22,10.60
2014,04,22,15,23,10.60
2014,04,22,15,24,10.60
2014,04,22,15,25,10.60
2014,04,22,15,26,10.60
2014,04,22,15,27,10.70
2014,04,22,15,28,10.70
2014,04,22,15,29,10.70
2014,04,22,15,30,10.70
2014,04,22,15,31,10.80
2014,04,22,15,32,10.80
2014,04,22,15,33,10.80
2014,04,22,15,34,10.80
2014,04,22,15,35,10.80
2014,04,22,15,36,10.70
2014,04,22,15,37,10.70
2014,04,22,15,38,10.70
2014,04,22,15,39,10.70
2014,04,22,15,40,10.80
2014,04,22,15,41,10.80
2014,04,22,15,42,10.80
2014,04,22,15,43,10.80
2014,04,22,15,44,10.90
2014,04,22,15,45,10.90
2014,04,22,15,46,11.00
2014,04,22,15,47,11.10
2014,04,22,15,48,11.10
2014,04,22,15,49,11.10
2014,04,22,15,50,11.10
2014,04,22,15,51,11.20
2014,04,22,15,52,11.20
2014,04,22,15,53,11.20
2014,04,22,15,54,11.20
2014,04,22,15,55,11.30
2014,04,22,15,56,11.30
2014,04,22,15,57,11.30
2014,04,22,15,58,11.40
2014,04,22,15,59,11.40
2014,04,22,16,00,11.50
2014,04,22,16,01,11.50
2014,04,22,16,02,11.60
2014,04,22,16,03,11.60
2014,04,22,16,04,11.70
2014,04,22,16,05,11.70
2014,04,22,16,06,11.70
2014,04,22,16,07,11.80
2014,04,22,16,08,11.80
2014,04,22,16,09,11.70
2014,04,22,16,10,11.70
2014,04,22,16,11,11.70
2014,04,22,16,12,11.70
2014,04,22,16,13,11.80
2014,04,22,16,14,11.90
2014,04,22,16,15,11.90
2014,04,22,16,16,11.90
2014,04,22,16,17,11.90
2014,04,22,16,18,11.90
2014,04,22,16,19,11.90
2014,04,22,16,20,11.90
2014,04,22,16,21,11.90
2014,04,22,16,22,11.90
2014,04,22,16,23,11.80
2014,04,22,16,24,11.70
2014,04,22,16,25,11.70
2014,04,22,16,26,11.70
2014,04,22,16,27,11.70
2014,04,22,16,28,11.70
2014,04,22,16,29,11.70
2014,04,22,16,30,11.70
2014,04,22,16,31,11.70
2014,04,22,16,32,11.80
2014,04,22,16,33,11.80
2014,04,22,16,34,11.80
2014,04,22,16,35,11.80
2014,04,22,16,36,11.80
2014,04,22,16,37,11.90
2014,04,22,16,38,11.90
2014,04,22,16,39,11.90
2014,04,22,16,40,11.90
2014,04,22,16,41,11.90
2014,04,22,16,42,11.90
2014,04,22,16,43,12.00
2014,04,22,16,44,12.00
2014,04,22,16,45,12.00
2014,04,22,16,46,12.10
2014,04,22,16,47,12.10
2014,04,22,16,48,12.20
2014,04,22,16,49,12.20
2014,04,22,16,50,12.30
2014,04,22,16,51,12.40
2014,04,22,16,52,12.50
2014,04,22,16,53,12.60
2014,04,22,16,54,12.60
2014,04,22,16,55,12.80
2014,04,22,16,56,12.80
2014,04,22,16,57,12.90
2014,04,22,16,58,13.00
2014,04,22,16,59,13.10
2014,04,22,17,00,13.20
2014,04,22,17,01,13.20
2014,04,22,17,02,13.30
2014,04,22,17,03,13.30
2014,04,22,17,04,13.30
2014,04,22,17,05,13.30
2014,04,22,17,06,13.30
2014,04,22,17,07,13.20
2014,04,22,17,08,13.20
2014,04,22,17,09,13.10
2014,04,22,17,10,13.10
2014,04,22,17,11,13.10
2014,04,22,17,12,13.00
2014,04,22,17,13,12.90
2014,04,22,17,14,12.80
2014,04,22,17,15,12.80
2014,04,22,17,16,12.70
2014,04,22,17,17,12.70
2014,04,22,17,18,12.70
2014,04,22,17,19,12.70
2014,04,22,17,20,12.70
2014,04,22,17,21,12.70
2014,04,22,17,22,12.80
2014,04,22,17,23,12.90
2014,04,22,17,24,13.00
2014,04,22,17,25,13.00
2014,04,22,17,26,13.10
2014,04,22,17,27,13.10
2014,04,22,17,28,13.20
2014,04,22,17,29,13.20
2014,04,22,17,30,13.20
2014,04,22,17,31,13.30
2014,04,22,17,32,13.30
2014,04,22,17,33,13.40
2014,04,22,17,34,13.50
2014,04,22,17,35,13.50
2014,04,22,17,36,13.60
2014,04,22,17,37,13.50
2014,04,22,17,38,13.50
2014,04,22,17,39,13.50
2014,04,22,17,40,13.40
2014,04,22,17,41,13.30
2014,04,22,17,42,13.30
2014,04,22,17,43,13.20
2014,04,22,17,44,13.20
2014,04,22,17,45,13.20
2014,04,22,17,46,13.20
2014,04,22,17,47,13.10
2014,04,22,17,48,13.10
2014,04,22,17,49,13.10
2014,04,22,17,50,13.10
2014,04,22,17,51,13.10
2014,04,22,17,52,13.10
2014,04,22,17,53,13.10
2014,04,22,17,54,13.00
2014,04,22,17,55,13.00
2014,04,22,17,56,13.00
2014,04,22,17,57,13.00
2014,04,22,17,58,12.90
2014,04,22,17,59,12.90